weather.gov     
National Weather Service

Regional Weather Roundup
NWS Homepage
This page is being discontinued on March 12, 2014.
The same data is available at this site. Please update your bookmarks.
Thank you, and we apologize for the inconvenience.
Please send an email to SR-SRH.Webmaster@noaa.gov with any concerns.


Current Version
Previous Version:    01  02  03  04  05  06  07  08  09  10  11  12  13  14  15  16  17  18  19  20  21  22  23  24  25  26  27  28  29  30  
   31  32  33  34  35  36  37  38  39  40  41  42  43  44  45  46  47  48  49  50  51  52  53  54  
[Printable]
498
ASUS44 KJAN 012210
RWRMS

MISSISSIPPI HOURLY WEATHER ROUNDUP
NATIONAL WEATHER SERVICE JACKSON MS
400 PM CST SUN FEB 01 2015

NOTE: "FAIR: INDICATES FEW OR NO CLOUDS BELOW 12,000 FEET WITH NO
SIGNIFICANT WEATHER AND/OR OBSTRUCTIONS TO VISIBILITY.

MSZ001>002-007>008-010>013-018>021-025>028-034>036-012300-
NORTHWEST MISSISSIPPI

CITY           SKY/WX    TMP DP  RH WIND       PRES   REMARKS
CLARKSDALE     PTSUNNY   55  55 100 W13G20    29.78R
CLEVELAND      CLOUDY    58  58  97 W16G22    29.78R
GREENWOOD      CLOUDY    64  59  83 SW9       29.75F
GREENVILLE     LGT RAIN  60  56  86 W15G22    29.77S
GRENADA        LGT RAIN  63  59  88 SW7       29.74S
OLIVE BRANCH   LGT RAIN  54  54 100 W12       29.72
OXFORD         CLOUDY    55  54  94 W14G24    29.75R FOG
TUNICA         CLOUDY    55  52  88 W14       29.76R
$$

MSZ003>006-009-014>017-022>024-029>033-037>039-012300-
NORTHEAST MISSISSIPPI

CITY           SKY/WX    TMP DP  RH WIND       PRES   REMARKS
COLUMBUS AFB   MIX PCPN  61  55  82 S13       29.77F
CORINTH        RAIN      54  52  94 S12       29.71R
GOLDN TRIANGLE CLOUDY    63  55  77 S13       29.78F
STARKVILLE     CLOUDY    64  59  82 S5        29.77F
TUPELO         LGT RAIN  57  53  86 SW9       29.73F
$$

MSZ040-058-012300-
CENTRAL MISSISSIPPI

CITY           SKY/WX    TMP DP  RH WIND       PRES   REMARKS
JACKSON INTL   PTSUNNY   69  59  70 S9        29.80F
JACKSON HAWKNS MOSUNNY   68  59  73 S12       29.79F THUNDER
MERIDIAN KEY   LGT RAIN  66  58  75 SW15      29.83S
MERIDIAN NAS   CLOUDY    67  58  72 S6        29.83F
RAYMOND        FAIR      68  63  83 S9        29.79F
VICKSBURG      LGT RAIN  71  60  68 SW9       29.77F
$$

MSZ059>079-012300-
SOUTH MISSISSIPPI

CITY           SKY/WX    TMP DP  RH WIND       PRES   REMARKS
BROOKHAVEN     MOCLDY    66  61  82 S12G17    29.86R
HATTIESBURG    LGT RAIN  64  61  90 S9        29.89F
MCCOMB         CLOUDY    65  62  90 SW9       29.86F
NATCHEZ        CLOUDY    72  61  68 S7G17     29.82S
PINE BELT      CLOUDY    63  59  88 S10       29.88F
$$

MSZ080>082-012300-
COASTAL MISSISSIPPI

CITY           SKY/WX    TMP DP  RH WIND       PRES   REMARKS
BAY ST LOUIS   CLOUDY    68  63  83 SW6       29.90F
BILOXI         PTSUNNY   64  62  94 SW10      29.91S
PASCAGOULA     CLOUDY    65  62  90 S7        29.91F
GULFPORT       PTSUNNY   67  63  87 SW8       29.90F
$$




U.S. Dept. of Commerce
NOAA National Weather Service
1325 East West Highway
Silver Spring, MD 20910
E-mail: w-nws.webmaster@noaa.gov
Page last modified: May 16, 2007
NATIONAL WEATHER SERVICE: for Safety, for Work, for Fun - FOR LIFE